Content
SEND FEEDBACK

Daily
Averages
Monthly
Summary
United States of America

AMBROSE, NORTH DAKOTA


Home > North America > United States > North Dakota
Elevation: 2060 feet     Latitude: 48 58N     Longitude: 103 28W

WEATHER
 
SELECT A DAY
Number of Records: 90,373;   Date Range: 11/18/10 - 10/19/14
 
SHARE

PRINT THIS DATA

[ ← Previous Day ]
WEATHER ALMANAC - FEBRUARY 5, 2013
[ Next Day → ]
[ °C ]   °F
Weather ElementAverageHighLow
Temperature24.7 °F32 °F (1:55 am)15.8 °F (6:15 pm)
Dewpoint20.8 °F26.6 °F (1:35 am)14 °F (6:15 pm)
Humidity85 %93 % (4:15 am)80 % (12:35 am)
Barometer29.83 in29.93 in (11:15 am)29.68 in (12:35 am)
Wind Speed11.7 mph25.3 mph (3:35 am)
Wind Gust35.7 mph (4:55 am)
Weather ElementAverage
Visibility10 mi
Wind DirectionWSW (235.6 °)

Weather ElementTotal
Precipitation---
Heating Degree Days41.1 (Base 65)
Averaged from 71 records on February 5, 2013
WEATHER CONDITIONS BREAKOUT
WIND DIRECTION BREAKOUT
WEATHER BY HOUR - FEBRUARY 5, 2013
[ °C ]   °F
Local TimeTemperatureDewpointHumidityBarometerVisibilityWind DirectionWind SpeedGust SpeedPrecipitationEventsConditions
12:35 AM28.4 °F23.0 °F80 %29.68 in10.0 miWNW (290°)18.4 mphClear
12:55 AM28.4 °F24.8 °F86 %29.69 in10.0 miWNW (300°)20.7 mphScattered Clouds
1:15 AM30.2 °F24.8 °F80 %29.70 in10.0 miWNW (300°)24.2 mphOvercast
1:35 AM30.2 °F26.6 °F86 %29.71 in10.0 miWNW (300°)21.9 mphOvercast
1:55 AM32.0 °F26.6 °F80 %29.71 in10.0 miNW (320°)21.9 mph27.6 mphOvercast
2:15 AM32.0 °F26.6 °F80 %29.72 in10.0 miNW (310°)19.6 mph26.5 mphOvercast
2:35 AM32.0 °F26.6 °F80 %29.74 in10.0 miNW (310°)20.7 mphOvercast
2:55 AM32.0 °F26.6 °F80 %29.75 in10.0 miNW (310°)19.6 mph26.5 mphOvercast
3:15 AM30.2 °F26.6 °F86 %29.76 in10.0 miNW (310°)19.6 mph23.0 mphOvercast
3:35 AM30.2 °F26.6 °F86 %29.76 in10.0 miNW (320°)25.3 mphOvercast
3:55 AM30.2 °F26.6 °F86 %29.77 in10.0 miNNW (330°)23.0 mph27.6 mphOvercast
4:15 AM28.4 °F26.6 °F93 %29.77 in10.0 miNW (320°)19.6 mphOvercast
4:35 AM28.4 °F26.6 °F93 %29.79 in10.0 miNW (320°)15.0 mph23.0 mphOvercast
4:55 AM28.4 °F24.8 °F86 %29.80 in10.0 miNNW (330°)25.3 mph35.7 mphOvercast
5:15 AM26.6 °F23.0 °F86 %29.82 in10.0 miNW (320°)20.7 mph26.5 mphOvercast
5:35 AM26.6 °F23.0 °F86 %29.83 in10.0 miNNW (330°)16.1 mph25.3 mphOvercast
5:55 AM24.8 °F21.2 °F86 %29.84 in10.0 miNNW (340°)15.0 mphOvercast
6:15 AM24.8 °F21.2 °F86 %29.86 in10.0 miNNW (330°)12.7 mphOvercast
6:35 AM23.0 °F19.4 °F86 %29.87 in10.0 miNNW (330°)15.0 mphOvercast
6:55 AM23.0 °F19.4 °F86 %29.87 in10.0 miNNW (340°)12.7 mphOvercast
7:15 AM23.0 °F19.4 °F86 %29.87 in10.0 miNNW (330°)12.7 mphOvercast
7:35 AM21.2 °F17.6 °F86 %29.89 in10.0 miNNW (330°)6.9 mphOvercast
7:55 AM21.2 °F17.6 °F86 %29.90 in10.0 miWNW (300°)8.1 mphOvercast
8:15 AM21.2 °F17.6 °F86 %29.90 in10.0 miNW (320°)11.5 mphOvercast
8:35 AM19.4 °F17.6 °F93 %29.90 in10.0 miNW (320°)12.7 mphOvercast
8:55 AM19.4 °F17.6 °F93 %29.90 in10.0 miNW (310°)12.7 mphOvercast
9:15 AM19.4 °F17.6 °F93 %29.91 in10.0 miNW (320°)8.1 mphOvercast
9:35 AM19.4 °F15.8 °F86 %29.91 in10.0 miNW (320°)9.2 mphOvercast
9:55 AM19.4 °F15.8 °F86 %29.91 in10.0 miNW (320°)10.4 mphOvercast
10:15 AM19.4 °F15.8 °F86 %29.91 in10.0 miNW (310°)10.4 mphOvercast
10:35 AM19.4 °F15.8 °F86 %29.91 in10.0 miCalmOvercast
10:55 AM19.4 °F15.8 °F86 %29.91 in10.0 miCalmOvercast
11:15 AM21.2 °F15.8 °F80 %29.93 in10.0 miWest (260°)11.5 mphMostly Cloudy
11:35 AM23.0 °F17.6 °F80 %29.92 in10.0 miWest (260°)9.2 mphMostly Cloudy
11:55 AM23.0 °F19.4 °F86 %29.92 in10.0 miWest (270°)10.4 mphOvercast
12:15 PM24.8 °F19.4 °F80 %29.92 in10.0 miWest (260°)9.2 mphOvercast
12:35 PM26.6 °F23.0 °F86 %29.91 in10.0 miWest (260°)13.8 mphOvercast
12:55 PM26.6 °F21.2 °F80 %29.91 in10.0 miWest (270°)12.7 mphOvercast
1:15 PM26.6 °F21.2 °F80 %29.90 in10.0 miWest (280°)9.2 mphOvercast
1:35 PM26.6 °F23.0 °F86 %29.89 in10.0 miWest (270°)9.2 mphOvercast
1:55 PM28.4 °F23.0 °F80 %29.89 in10.0 miWSW (250°)6.9 mphOvercast
2:15 PM28.4 °F23.0 °F80 %29.88 in10.0 miWest (270°)5.8 mphOvercast
2:35 PM28.4 °F23.0 °F80 %29.87 in10.0 miWSW (240°)5.8 mphOvercast
2:55 PM28.4 °F23.0 °F80 %29.87 in10.0 miWSW (240°)6.9 mphOvercast
3:15 PM28.4 °F23.0 °F80 %29.86 in10.0 miSW (230°)5.8 mphOvercast
3:35 PM26.6 °F23.0 °F86 %29.86 in10.0 miSSW (200°)5.8 mphOvercast
3:55 PM28.4 °F23.0 °F80 %29.85 in10.0 miSouth (190°)5.8 mphOvercast
4:15 PM28.4 °F23.0 °F80 %29.85 in10.0 miSouth (190°)5.8 mphScattered Clouds
4:35 PM28.4 °F23.0 °F80 %29.84 in10.0 miSouth (190°)8.1 mphMostly Cloudy
4:55 PM26.6 °F23.0 °F86 %29.84 in10.0 miSouth (170°)8.1 mphMostly Cloudy
5:15 PM26.6 °F21.2 °F80 %29.84 in10.0 miSouth (180°)8.1 mphPartly Cloudy
5:35 PM21.2 °F17.6 °F86 %29.83 in10.0 miSE (140°)5.8 mphClear
5:55 PM17.6 °F15.8 °F93 %29.83 in10.0 miSE (140°)8.1 mphClear
6:15 PM15.8 °F14.0 °F93 %29.82 in10.0 miSE (130°)8.1 mphPartly Cloudy
6:35 PM15.8 °F14.0 °F93 %29.83 in10.0 miSE (140°)6.9 mphClear
6:55 PM15.8 °F14.0 °F93 %29.82 in10.0 miESE (120°)6.9 mphMostly Cloudy
7:15 PM17.6 °F15.8 °F93 %29.82 in10.0 miSE (130°)5.8 mphOvercast
7:35 PM17.6 °F15.8 °F93 %29.80 in10.0 miEast (100°)4.6 mphOvercast
7:55 PM17.6 °F15.8 °F93 %29.79 in10.0 miSE (130°)3.5 mphOvercast
8:15 PM23.0 °F19.4 °F86 %29.79 in10.0 miSE (140°)5.8 mphOvercast
8:35 PM23.0 °F19.4 °F86 %29.78 in10.0 miESE (120°)5.8 mphOvercast
8:55 PM24.8 °F19.4 °F80 %29.78 in10.0 miSE (140°)9.2 mphOvercast
9:15 PM24.8 °F19.4 °F80 %29.77 in10.0 miSE (140°)10.4 mphMostly Cloudy
9:35 PM24.8 °F21.2 °F86 %29.78 in10.0 miSSE (160°)6.9 mphOvercast
9:55 PM26.6 °F21.2 °F80 %29.77 in10.0 miSE (140°)5.8 mphMostly Cloudy
10:15 PM24.8 °F21.2 °F86 %29.76 in10.0 miSE (130°)8.1 mphPartly Cloudy
10:35 PM26.6 °F21.2 °F80 %29.75 in10.0 miSSE (150°)13.8 mphClear
10:55 PM26.6 °F21.2 °F80 %29.74 in10.0 miSE (140°)15.0 mphScattered Clouds
11:15 PM24.8 °F21.2 °F86 %29.73 in10.0 miSSE (150°)18.4 mphPartly Cloudy
11:35 PM24.8 °F21.2 °F86 %29.72 in10.0 miSE (140°)17.3 mphPartly Cloudy
11:55 PM26.6 °F21.2 °F80 %29.72 in10.0 miSE (130°)17.3 mphScattered Clouds
Hourly data recorded from KD50, located miles away from Ambrose, North Dakota







STORIES FROM OUR PARTNERS